USA 60

operational
NORAD ID: 20682 Int'l Des: 1990-050 Owner: NRO/NRL Country: US
LEO

About USA 60

Description loading...

Live Position

Loading 3D Globe...

Upcoming Passes

Altitude History

Altitude vs Time

uPlot chart will show altitude changes over time

Two-Line Element Set

1 20682U 90050B 25278.13340078 .00011747 00000-0 80239-3 0 9997
2 20682 63.2945 177.1871 0887075 78.0070 291.8889 13.62009140 69060
Epoch: Oct 5, 2025 • Age: 25 hours

Current Status

Altitude 995.3 km
Velocity 7.37 km/s
Sub-Earth Point -12.48°S, 95.94°E
Launch Date Jun 8, 1990
Age 35.3 years
Type military

Technical Details

Classification Payload
Mass 400.00 kg
Dry Mass 400.00 kg
Total Mass 400.00 kg
Length 1.00 m
Diameter 1.00 m
Span 10.00 m
Shape Box + Ant
Manufacturer NRL
Bus Type NOSS B SSU
Phase Status In Orbit
Owner/State NRO/NRL/US

Large Constellations

Loading constellations...